TimePDT,TemperatureF,Dew PointF,Humidity,Sea Level PressureIn,VisibilityMPH,Wind Direction,Wind SpeedMPH,Gust SpeedMPH,PrecipitationIn,Events,Conditions,WindDirDegrees,DateUTC
12:15 AM,62.6,53.6,72,30.12,10.0,Calm,Calm,-,N/A,,Clear,0,2013-09-04 07:15:00
12:35 AM,62.6,53.6,72,30.12,10.0,Calm,Calm,-,N/A,,Clear,0,2013-09-04 07:35:00
12:55 AM,60.8,53.6,77,30.12,10.0,Calm,Calm,-,N/A,,Clear,0,2013-09-04 07:55:00
1:15 AM,59.0,53.6,82,30.12,10.0,ENE,3.5,-,N/A,,Clear,70,2013-09-04 08:15:00
1:35 AM,59.0,51.8,77,30.12,10.0,Calm,Calm,-,N/A,,Clear,0,2013-09-04 08:35:00
1:55 AM,59.0,51.8,77,30.12,10.0,Calm,Calm,-,N/A,,Clear,0,2013-09-04 08:55:00
2:15 AM,57.2,50.0,77,30.12,10.0,SE,3.5,-,N/A,,Clear,130,2013-09-04 09:15:00
2:35 AM,57.2,50.0,77,30.12,10.0,Calm,Calm,-,N/A,,Clear,0,2013-09-04 09:35:00
2:55 AM,57.2,50.0,77,30.12,10.0,Calm,Calm,-,N/A,,Clear,0,2013-09-04 09:55:00
3:15 AM,57.2,50.0,77,30.12,10.0,Calm,Calm,-,N/A,,Clear,0,2013-09-04 10:15:00
3:35 AM,57.2,50.0,77,30.12,10.0,East,3.5,-,N/A,,Clear,80,2013-09-04 10:35:00
3:55 AM,55.4,50.0,82,30.11,10.0,Calm,Calm,-,N/A,,Clear,0,2013-09-04 10:55:00
4:15 AM,55.4,50.0,82,30.11,10.0,Calm,Calm,-,N/A,,Clear,0,2013-09-04 11:15:00
4:35 AM,57.2,50.0,77,30.12,10.0,Calm,Calm,-,N/A,,Clear,0,2013-09-04 11:35:00
4:55 AM,57.2,50.0,77,30.12,10.0,Calm,Calm,-,N/A,,Clear,0,2013-09-04 11:55:00
5:15 AM,57.2,50.0,77,30.12,10.0,Calm,Calm,-,N/A,,Clear,0,2013-09-04 12:15:00
5:35 AM,55.4,48.2,77,30.12,10.0,SE,3.5,-,N/A,,Clear,130,2013-09-04 12:35:00
5:55 AM,55.4,50.0,82,30.12,10.0,East,3.5,-,N/A,,Clear,100,2013-09-04 12:55:00
6:15 AM,55.4,48.2,77,30.12,10.0,Calm,Calm,-,N/A,,Clear,0,2013-09-04 13:15:00
6:35 AM,55.4,50.0,82,30.13,9.0,East,4.6,-,N/A,,Clear,90,2013-09-04 13:35:00
6:55 AM,57.2,50.0,77,30.14,9.0,Calm,Calm,-,N/A,,Clear,0,2013-09-04 13:55:00
7:15 AM,59.0,50.0,72,30.14,9.0,SE,3.5,-,N/A,,Clear,130,2013-09-04 14:15:00
7:35 AM,59.0,50.0,72,30.14,9.0,Calm,Calm,-,N/A,,Clear,0,2013-09-04 14:35:00
7:55 AM,62.6,50.0,63,30.14,7.0,Calm,Calm,-,N/A,,Clear,0,2013-09-04 14:55:00
8:15 AM,66.2,51.8,60,30.14,9.0,SE,6.9,-,N/A,,Clear,130,2013-09-04 15:15:00
8:35 AM,68.0,53.6,60,30.14,9.0,Calm,Calm,-,N/A,,Clear,0,2013-09-04 15:35:00
8:55 AM,71.6,53.6,53,30.13,10.0,Calm,Calm,-,N/A,,Clear,0,2013-09-04 15:55:00
9:15 AM,75.2,53.6,47,30.14,10.0,SE,3.5,-,N/A,,Clear,140,2013-09-04 16:15:00
9:35 AM,77.0,51.8,41,30.14,10.0,Calm,Calm,-,N/A,,Clear,0,2013-09-04 16:35:00
9:55 AM,80.6,50.0,34,30.14,9.0,West,3.5,-,N/A,,Clear,280,2013-09-04 16:55:00
10:15 AM,82.4,48.2,30,30.14,10.0,NW,3.5,-,N/A,,Clear,320,2013-09-04 17:15:00
10:35 AM,84.2,46.4,27,30.14,9.0,Calm,Calm,-,N/A,,Clear,0,2013-09-04 17:35:00
10:55 AM,86.0,48.2,27,30.13,10.0,NW,10.4,-,N/A,,Clear,310,2013-09-04 17:55:00
11:15 AM,86.0,48.2,27,30.13,10.0,NW,9.2,-,N/A,,Clear,320,2013-09-04 18:15:00
11:35 AM,86.0,50.0,29,30.12,8.0,NW,12.7,-,N/A,,Clear,310,2013-09-04 18:35:00
11:55 AM,84.2,50.0,30,30.12,10.0,NW,16.1,-,N/A,,Clear,320,2013-09-04 18:55:00
12:15 PM,86.0,50.0,29,30.12,10.0,NW,17.3,23.0,N/A,,Clear,310,2013-09-04 19:15:00
12:35 PM,86.0,48.2,27,30.11,9.0,NW,16.1,21.9,N/A,,Partly Cloudy,310,2013-09-04 19:35:00
12:55 PM,86.0,48.2,27,30.10,9.0,NW,19.6,23.0,N/A,,Clear,320,2013-09-04 19:55:00
1:15 PM,86.0,46.4,25,30.10,10.0,NW,19.6,-,N/A,,Partly Cloudy,310,2013-09-04 20:15:00
1:35 PM,86.0,48.2,27,30.10,10.0,NW,19.6,-,N/A,,Partly Cloudy,320,2013-09-04 20:35:00
1:55 PM,86.0,48.2,27,30.10,10.0,NW,18.4,-,N/A,,Clear,310,2013-09-04 20:55:00
2:15 PM,84.2,48.2,29,30.09,10.0,NW,19.6,25.3,N/A,,Clear,320,2013-09-04 21:15:00
2:35 PM,84.2,48.2,29,30.09,10.0,NW,18.4,24.2,N/A,,Clear,310,2013-09-04 21:35:00
2:55 PM,82.4,50.0,32,30.09,10.0,WNW,17.3,24.2,N/A,,Partly Cloudy,300,2013-09-04 21:55:00
3:15 PM,80.6,48.2,32,30.09,10.0,NW,17.3,-,N/A,,Scattered Clouds,310,2013-09-04 22:15:00
3:35 PM,82.4,48.2,30,30.09,10.0,NW,17.3,21.9,N/A,,Partly Cloudy,310,2013-09-04 22:35:00
3:55 PM,82.4,48.2,30,30.08,10.0,NW,17.3,21.9,N/A,,Clear,310,2013-09-04 22:55:00
4:15 PM,82.4,48.2,30,30.08,10.0,NW,17.3,23.0,N/A,,Partly Cloudy,310,2013-09-04 23:15:00
4:35 PM,82.4,48.2,30,30.08,10.0,NW,16.1,-,N/A,,Partly Cloudy,310,2013-09-04 23:35:00
4:55 PM,82.4,48.2,30,30.08,10.0,NW,17.3,20.7,N/A,,Clear,310,2013-09-04 23:55:00
5:15 PM,80.6,48.2,32,30.08,10.0,NW,15.0,-,N/A,,Clear,310,2013-09-05 00:15:00
5:35 PM,80.6,48.2,32,30.09,10.0,NW,13.8,-,N/A,,Clear,320,2013-09-05 00:35:00
5:55 PM,80.6,50.0,34,30.08,10.0,NW,13.8,-,N/A,,Clear,320,2013-09-05 00:55:00
6:15 PM,78.8,50.0,36,30.08,10.0,NW,15.0,-,N/A,,Clear,320,2013-09-05 01:15:00
6:35 PM,77.0,50.0,39,30.08,9.0,NW,11.5,-,N/A,,Clear,320,2013-09-05 01:35:00
6:55 PM,75.2,50.0,41,30.09,10.0,NW,8.1,-,N/A,,Clear,310,2013-09-05 01:55:00
7:15 PM,73.4,50.0,44,30.09,10.0,NW,10.4,-,N/A,,Clear,310,2013-09-05 02:15:00
7:35 PM,71.6,51.8,50,30.10,9.0,NW,6.9,-,N/A,,Clear,320,2013-09-05 02:35:00
7:55 PM,71.6,51.8,50,30.10,10.0,NW,8.1,-,N/A,,Clear,310,2013-09-05 02:55:00
8:15 PM,69.8,51.8,53,30.11,10.0,West,5.8,-,N/A,,Clear,260,2013-09-05 03:15:00
8:35 PM,71.6,51.8,50,30.11,10.0,WNW,4.6,-,N/A,,Clear,300,2013-09-05 03:35:00
8:55 PM,69.8,51.8,53,30.11,10.0,WNW,4.6,-,N/A,,Clear,290,2013-09-05 03:55:00
9:15 PM,69.8,51.8,53,30.12,10.0,West,4.6,-,N/A,,Clear,270,2013-09-05 04:15:00
9:35 PM,68.0,51.8,56,30.12,10.0,West,5.8,-,N/A,,Clear,270,2013-09-05 04:35:00
9:55 PM,66.2,51.8,60,30.12,10.0,WNW,5.8,-,N/A,,Clear,290,2013-09-05 04:55:00
10:15 PM,66.2,51.8,60,30.12,10.0,SE,3.5,-,N/A,,Clear,140,2013-09-05 05:15:00
10:35 PM,64.4,50.0,59,30.12,10.0,Calm,Calm,-,N/A,,Clear,0,2013-09-05 05:35:00
10:55 PM,64.4,50.0,59,30.12,10.0,South,4.6,-,N/A,,Clear,170,2013-09-05 05:55:00
11:15 PM,64.4,50.0,59,30.13,10.0,Calm,Calm,-,N/A,,Clear,0,2013-09-05 06:15:00
11:35 PM,62.6,50.0,63,30.13,10.0,Calm,Calm,-,N/A,,Clear,0,2013-09-05 06:35:00
11:55 PM,62.6,48.2,59,30.13,10.0,Calm,Calm,-,N/A,,Clear,0,2013-09-05 06:55:00